Time,TemperatureF,DewpointF,PressureIn,WindDirection,WindDirectionDegrees,WindSpeedMPH,WindSpeedGustMPH,Humidity,HourlyPrecipIn,Conditions,Clouds,dailyrainin,SoftwareType,DateUTC
2013-03-06 00:02:00,40.0,28.0,30.00,ESE,121,5.0,12.0,63,0.00,,,0.00,,2013-03-06 05:02:00,
2013-03-06 00:12:00,40.0,28.0,30.00,ESE,121,5.0,12.0,63,0.00,,,0.00,,2013-03-06 05:12:00,
2013-03-06 00:22:00,40.0,30.0,30.00,ESE,110,3.0,12.0,66,0.00,,,0.00,,2013-03-06 05:22:00,
2013-03-06 00:32:00,40.0,30.0,30.00,ESE,108,5.0,9.0,67,0.00,,,0.00,,2013-03-06 05:32:00,
2013-03-06 00:42:00,40.0,30.0,30.00,ESE,108,5.0,9.0,67,0.00,,,0.00,,2013-03-06 05:42:00,
2013-03-06 00:52:00,40.0,31.0,30.00,SE,132,9.0,12.0,70,0.00,,,0.00,,2013-03-06 05:52:00,
2013-03-06 01:02:00,40.0,31.0,30.00,ESE,111,8.0,12.0,71,0.00,,,0.00,,2013-03-06 06:02:00,
2013-03-06 01:11:00,40.0,31.0,30.00,ESE,111,8.0,12.0,71,0.00,,,0.00,,2013-03-06 06:11:00,
2013-03-06 01:22:00,40.0,32.0,30.00,SE,127,7.0,13.0,73,0.00,,,0.00,,2013-03-06 06:22:00,
2013-03-06 01:32:00,40.0,32.0,30.00,SE,136,5.0,13.0,73,0.00,,,0.00,,2013-03-06 06:32:00,
2013-03-06 01:42:00,40.0,32.0,30.00,SE,136,5.0,13.0,73,0.00,,,0.00,,2013-03-06 06:42:00,
2013-03-06 01:52:00,39.0,31.0,29.96,East,92,8.0,12.0,74,0.00,,,0.00,,2013-03-06 06:52:00,
2013-03-06 02:01:00,39.0,32.0,29.96,East,90,9.0,13.0,75,0.00,,,0.00,,2013-03-06 07:01:00,
2013-03-06 02:11:00,39.0,32.0,29.96,East,90,9.0,13.0,75,0.00,,,0.00,,2013-03-06 07:11:00,
2013-03-06 02:22:00,39.0,32.0,29.96,ESE,104,13.0,15.0,76,0.00,,,0.00,,2013-03-06 07:22:00,
2013-03-06 02:32:00,39.0,32.0,29.96,East,89,10.0,14.0,76,0.00,,,0.00,,2013-03-06 07:32:00,
2013-03-06 02:42:00,39.0,32.0,29.96,East,89,10.0,14.0,76,0.00,,,0.00,,2013-03-06 07:42:00,
2013-03-06 02:52:00,39.0,32.0,29.96,East,100,10.0,17.0,77,0.00,,,0.00,,2013-03-06 07:52:00,
2013-03-06 03:01:00,39.0,33.0,29.96,ENE,77,8.0,15.0,78,0.00,,,0.00,,2013-03-06 08:01:00,
2013-03-06 03:11:00,39.0,33.0,29.96,ENE,77,8.0,15.0,78,0.00,,,0.00,,2013-03-06 08:11:00,
2013-03-06 03:21:00,39.0,32.0,29.96,East,86,13.0,18.0,77,0.00,,,0.00,,2013-03-06 08:21:00,
2013-03-06 03:32:00,38.0,31.0,29.96,East,88,12.0,18.0,77,0.00,,,0.00,,2013-03-06 08:32:00,
2013-03-06 03:42:00,38.0,31.0,29.96,East,88,12.0,18.0,77,0.00,,,0.00,,2013-03-06 08:42:00,
2013-03-06 03:52:00,38.0,31.0,29.96,ENE,76,13.0,21.0,77,0.00,,,0.00,,2013-03-06 08:52:00,
2013-03-06 04:01:00,38.0,31.0,29.96,East,95,10.0,21.0,76,0.00,,,0.00,,2013-03-06 09:01:00,
2013-03-06 04:12:00,38.0,31.0,29.96,East,95,10.0,21.0,76,0.00,,,0.00,,2013-03-06 09:12:00,
2013-03-06 04:22:00,38.0,31.0,29.96,East,86,15.0,24.0,76,0.00,,,0.00,,2013-03-06 09:22:00,
2013-03-06 04:32:00,38.0,31.0,29.96,East,86,15.0,24.0,76,0.00,,,0.00,,2013-03-06 09:32:00,
2013-03-06 04:42:00,38.0,31.0,29.96,East,86,15.0,24.0,76,0.00,,,0.00,,2013-03-06 09:42:00,
2013-03-06 04:52:00,38.0,31.0,29.96,East,86,18.0,25.0,77,0.00,,,0.00,,2013-03-06 09:52:00,
2013-03-06 05:02:00,38.0,31.0,29.96,East,86,18.0,25.0,77,0.00,,,0.00,,2013-03-06 10:02:00,
2013-03-06 05:11:00,38.0,31.0,29.96,East,86,18.0,25.0,77,0.00,,,0.00,,2013-03-06 10:11:00,
2013-03-06 05:22:00,38.0,31.0,29.96,ENE,75,10.0,23.0,77,0.00,,,0.00,,2013-03-06 10:22:00,
2013-03-06 05:32:00,38.0,31.0,29.96,ENE,75,10.0,23.0,77,0.00,,,0.00,,2013-03-06 10:32:00,
2013-03-06 05:42:00,38.0,31.0,29.96,ENE,75,10.0,23.0,77,0.00,,,0.00,,2013-03-06 10:42:00,
2013-03-06 05:52:00,38.0,31.0,29.91,East,88,18.0,26.0,76,0.00,,,0.00,,2013-03-06 10:52:00,
2013-03-06 06:02:00,38.0,31.0,29.91,East,81,16.0,30.0,76,0.00,,,0.00,,2013-03-06 11:02:00,
2013-03-06 06:11:00,38.0,31.0,29.91,East,81,16.0,30.0,76,0.00,,,0.00,,2013-03-06 11:11:00,
2013-03-06 06:22:00,39.0,31.0,29.91,East,92,18.0,25.0,74,0.00,,,0.00,,2013-03-06 11:22:00,
2013-03-06 06:32:00,39.0,31.0,29.91,East,83,10.0,23.0,74,0.00,,,0.00,,2013-03-06 11:32:00,
2013-03-06 06:42:00,39.0,31.0,29.91,East,83,10.0,23.0,74,0.00,,,0.00,,2013-03-06 11:42:00,
2013-03-06 06:52:00,38.0,32.0,29.91,ENE,68,14.0,25.0,79,0.00,,,0.00,,2013-03-06 11:52:00,
2013-03-06 07:02:00,38.0,32.0,29.91,ENE,72,13.0,24.0,80,0.00,,,0.00,,2013-03-06 12:02:00,
2013-03-06 07:12:00,38.0,32.0,29.91,ENE,72,13.0,24.0,80,0.00,,,0.00,,2013-03-06 12:12:00,
2013-03-06 07:22:00,38.0,33.0,29.91,ENE,73,12.0,25.0,81,0.00,,,0.00,,2013-03-06 12:22:00,
2013-03-06 07:33:00,38.0,33.0,29.91,ENE,73,12.0,25.0,81,0.00,,,0.00,,2013-03-06 12:33:00,
2013-03-06 07:42:00,38.0,33.0,29.91,ENE,73,12.0,25.0,81,0.00,,,0.00,,2013-03-06 12:42:00,
2013-03-06 07:53:00,38.0,33.0,29.91,ENE,65,17.0,26.0,82,0.00,,,0.00,,2013-03-06 12:53:00,
2013-03-06 08:02:00,38.0,33.0,29.91,ENE,66,20.0,30.0,82,0.00,,,0.00,,2013-03-06 13:02:00,
2013-03-06 08:12:00,38.0,33.0,29.91,ENE,66,20.0,30.0,82,0.00,,,0.00,,2013-03-06 13:12:00,
2013-03-06 08:22:00,38.0,33.0,29.91,East,83,18.0,28.0,82,0.00,,,0.00,,2013-03-06 13:22:00,
2013-03-06 08:32:00,38.0,33.0,29.91,ENE,67,18.0,31.0,83,0.00,,,0.00,,2013-03-06 13:32:00,
2013-03-06 08:42:00,38.0,33.0,29.91,ENE,67,18.0,31.0,83,0.00,,,0.00,,2013-03-06 13:42:00,
2013-03-06 08:52:00,38.0,33.0,29.91,ENE,72,18.0,26.0,82,0.00,,,0.00,,2013-03-06 13:52:00,
2013-03-06 09:02:00,38.0,33.0,29.91,East,82,13.0,30.0,82,0.00,,,0.00,,2013-03-06 14:02:00,
2013-03-06 09:11:00,38.0,33.0,29.91,East,82,13.0,30.0,82,0.00,,,0.00,,2013-03-06 14:11:00,
2013-03-06 09:22:00,38.0,33.0,29.91,ENE,68,17.0,28.0,81,0.00,,,0.00,,2013-03-06 14:22:00,
2013-03-06 09:32:00,38.0,33.0,29.91,ENE,73,13.0,29.0,81,0.00,,,0.00,,2013-03-06 14:32:00,
2013-03-06 09:42:00,38.0,33.0,29.91,ENE,73,13.0,29.0,81,0.00,,,0.00,,2013-03-06 14:42:00,
2013-03-06 09:53:00,39.0,34.0,29.89,ENE,61,17.0,26.0,81,0.00,,,0.00,,2013-03-06 14:53:00,
2013-03-06 10:02:00,38.0,33.0,29.89,ENE,67,18.0,35.0,82,0.00,,,0.00,,2013-03-06 15:02:00,
2013-03-06 10:12:00,38.0,33.0,29.89,ENE,67,18.0,35.0,82,0.00,,,0.00,,2013-03-06 15:12:00,
2013-03-06 10:22:00,38.0,33.0,29.89,ENE,75,17.0,29.0,83,0.00,,,0.00,,2013-03-06 15:22:00,
2013-03-06 10:32:00,39.0,34.0,29.89,ENE,70,18.0,28.0,82,0.00,,,0.00,,2013-03-06 15:32:00,
2013-03-06 10:42:00,39.0,34.0,29.89,ENE,70,18.0,28.0,82,0.00,,,0.00,,2013-03-06 15:42:00,
2013-03-06 10:52:00,39.0,34.0,29.89,NE,53,17.0,29.0,81,0.00,,,0.00,,2013-03-06 15:52:00,
2013-03-06 11:02:00,39.0,34.0,29.89,ENE,75,16.0,26.0,82,0.00,,,0.00,,2013-03-06 16:02:00,
2013-03-06 11:12:00,39.0,34.0,29.89,ENE,75,16.0,26.0,82,0.00,,,0.00,,2013-03-06 16:12:00,
2013-03-06 11:21:00,40.0,34.0,29.89,ENE,77,14.0,26.0,80,0.00,,,0.00,,2013-03-06 16:21:00,
2013-03-06 11:32:00,39.0,34.0,29.89,NE,49,15.0,37.0,82,0.00,,,0.00,,2013-03-06 16:32:00,
2013-03-06 11:42:00,39.0,34.0,29.89,NE,49,15.0,37.0,82,0.00,,,0.00,,2013-03-06 16:42:00,
2013-03-06 11:52:00,39.0,35.0,29.89,NE,54,18.0,33.0,84,0.00,,,0.00,,2013-03-06 16:52:00,
2013-03-06 12:01:00,39.0,35.0,29.89,ENE,72,15.0,30.0,86,0.00,,,0.00,,2013-03-06 17:01:00,
2013-03-06 12:11:00,39.0,35.0,29.89,ENE,72,15.0,30.0,86,0.00,,,0.00,,2013-03-06 17:11:00,
2013-03-06 12:22:00,39.0,35.0,29.89,East,89,19.0,43.0,86,0.00,,,0.00,,2013-03-06 17:22:00,
2013-03-06 12:32:00,39.0,35.0,29.89,ENE,76,24.0,35.0,85,0.00,,,0.00,,2013-03-06 17:32:00,
2013-03-06 12:42:00,39.0,35.0,29.89,ENE,76,24.0,35.0,85,0.00,,,0.00,,2013-03-06 17:42:00,
2013-03-06 12:53:00,40.0,34.0,29.89,East,87,28.0,41.0,79,0.00,,,0.00,,2013-03-06 17:53:00,
2013-03-06 13:02:00,40.0,34.0,29.89,ENE,75,21.0,36.0,78,0.00,,,0.00,,2013-03-06 18:02:00,
2013-03-06 13:29:00,40.0,32.0,29.89,ENE,67,20.0,37.0,74,0.00,,,0.00,,2013-03-06 18:29:00,
2013-03-06 13:42:00,40.0,32.0,29.89,ENE,68,22.0,36.0,73,0.00,,,0.00,,2013-03-06 18:42:00,
2013-03-06 13:53:00,40.0,32.0,29.89,NE,55,20.0,40.0,72,0.00,,,0.00,,2013-03-06 18:53:00,
2013-03-06 14:02:00,40.0,31.0,29.89,ENE,72,21.0,39.0,71,0.00,,,0.00,,2013-03-06 19:02:00,
2013-03-06 14:11:00,40.0,31.0,29.89,ENE,72,21.0,39.0,71,0.00,,,0.00,,2013-03-06 19:11:00,
2013-03-06 14:22:00,40.0,31.0,29.85,ENE,67,22.0,43.0,69,0.00,,,0.00,,2013-03-06 19:22:00,
2013-03-06 14:32:00,41.0,31.0,29.85,ENE,76,23.0,40.0,68,0.00,,,0.00,,2013-03-06 19:32:00,
2013-03-06 14:43:00,41.0,31.0,29.85,ENE,76,23.0,40.0,68,0.00,,,0.00,,2013-03-06 19:43:00,
2013-03-06 14:53:00,40.0,31.0,29.85,ENE,64,18.0,35.0,70,0.00,,,0.00,,2013-03-06 19:53:00,
2013-03-06 15:02:00,40.0,31.0,29.85,ENE,65,14.0,33.0,70,0.00,,,0.00,,2013-03-06 20:02:00,
2013-03-06 15:12:00,40.0,31.0,29.85,ENE,65,14.0,33.0,70,0.00,,,0.00,,2013-03-06 20:12:00,
2013-03-06 15:22:00,40.0,32.0,29.85,ENE,57,24.0,43.0,74,0.00,,,0.00,,2013-03-06 20:22:00,
2013-03-06 15:32:00,39.0,33.0,29.85,ENE,68,18.0,37.0,80,0.00,,,0.00,,2013-03-06 20:32:00,
2013-03-06 15:42:00,39.0,33.0,29.85,ENE,68,18.0,37.0,80,0.00,,,0.00,,2013-03-06 20:42:00,
2013-03-06 15:53:00,38.0,32.0,29.85,ENE,69,21.0,36.0,80,0.00,,,0.00,,2013-03-06 20:53:00,
2013-03-06 16:02:00,38.0,32.0,29.85,NE,53,17.0,36.0,80,0.00,,,0.00,,2013-03-06 21:02:00,
2013-03-06 16:12:00,38.0,32.0,29.85,NE,53,17.0,36.0,80,0.00,,,0.00,,2013-03-06 21:12:00,
2013-03-06 16:22:00,39.0,32.0,29.85,NE,41,15.0,26.0,75,0.00,,,0.00,,2013-03-06 21:22:00,
2013-03-06 16:32:00,40.0,32.0,29.85,NE,46,17.0,30.0,74,0.00,,,0.00,,2013-03-06 21:32:00,
2013-03-06 16:42:00,40.0,32.0,29.85,NE,46,17.0,30.0,74,0.00,,,0.00,,2013-03-06 21:42:00,
2013-03-06 16:52:00,40.0,32.0,29.85,NE,50,12.0,30.0,74,0.00,,,0.00,,2013-03-06 21:52:00,
2013-03-06 17:02:00,40.0,32.0,29.85,NE,53,13.0,26.0,74,0.00,,,0.00,,2013-03-06 22:02:00,
2013-03-06 17:11:00,40.0,32.0,29.85,NE,53,13.0,26.0,74,0.00,,,0.00,,2013-03-06 22:11:00,
2013-03-06 17:22:00,40.0,32.0,29.85,ENE,59,17.0,29.0,73,0.00,,,0.00,,2013-03-06 22:22:00,
2013-03-06 17:32:00,40.0,32.0,29.85,NE,36,17.0,29.0,72,0.00,,,0.00,,2013-03-06 22:32:00,
2013-03-06 17:42:00,40.0,32.0,29.85,NE,36,17.0,29.0,72,0.00,,,0.00,,2013-03-06 22:42:00,
2013-03-06 17:52:00,41.0,32.0,29.85,NE,41,14.0,32.0,69,0.00,,,0.00,,2013-03-06 22:52:00,
2013-03-06 18:01:00,40.0,31.0,29.85,NE,47,22.0,36.0,69,0.00,,,0.00,,2013-03-06 23:01:00,
2013-03-06 18:11:00,40.0,31.0,29.85,NE,47,22.0,36.0,69,0.00,,,0.00,,2013-03-06 23:11:00,
2013-03-06 18:22:00,40.0,31.0,29.85,NE,45,21.0,36.0,70,0.00,,,0.00,,2013-03-06 23:22:00,
2013-03-06 18:32:00,40.0,31.0,29.85,NE,49,22.0,35.0,69,0.00,,,0.00,,2013-03-06 23:32:00,
2013-03-06 18:42:00,40.0,31.0,29.85,NE,49,22.0,35.0,69,0.00,,,0.00,,2013-03-06 23:42:00,
2013-03-06 18:52:00,40.0,31.0,29.85,ENE,75,16.0,40.0,69,0.00,,,0.00,,2013-03-06 23:52:00,
2013-03-06 19:02:00,40.0,31.0,29.85,NE,47,19.0,36.0,70,0.00,,,0.00,,2013-03-07 00:02:00,
2013-03-06 19:11:00,40.0,31.0,29.85,NE,47,19.0,36.0,70,0.00,,,0.00,,2013-03-07 00:11:00,
2013-03-06 19:22:00,40.0,31.0,29.85,NE,49,19.0,36.0,70,0.00,,,0.00,,2013-03-07 00:22:00,
2013-03-06 19:32:00,40.0,31.0,29.85,NE,48,20.0,36.0,69,0.00,,,0.00,,2013-03-07 00:32:00,
2013-03-06 19:42:00,40.0,31.0,29.85,NE,48,20.0,36.0,69,0.00,,,0.00,,2013-03-07 00:42:00,
2013-03-06 19:52:00,39.0,30.0,29.90,NE,47,20.0,35.0,69,0.00,,,0.00,,2013-03-07 00:52:00,
2013-03-06 20:01:00,39.0,30.0,29.90,NE,40,20.0,36.0,70,0.00,,,0.00,,2013-03-07 01:01:00,
2013-03-06 20:11:00,39.0,30.0,29.90,NE,40,20.0,36.0,70,0.00,,,0.00,,2013-03-07 01:11:00,
2013-03-06 20:22:00,39.0,30.0,29.90,NE,44,13.0,35.0,70,0.00,,,0.00,,2013-03-07 01:22:00,
2013-03-06 20:32:00,39.0,30.0,29.90,NNE,33,17.0,45.0,70,0.00,,,0.00,,2013-03-07 01:32:00,
2013-03-06 20:42:00,39.0,30.0,29.90,NNE,33,17.0,45.0,70,0.00,,,0.00,,2013-03-07 01:42:00,
2013-03-06 20:52:00,39.0,30.0,29.90,NE,43,23.0,38.0,70,0.00,,,0.00,,2013-03-07 01:52:00,
2013-03-06 21:01:00,39.0,30.0,29.90,NE,38,24.0,38.0,69,0.00,,,0.00,,2013-03-07 02:01:00,
2013-03-06 21:11:00,39.0,30.0,29.90,NE,38,24.0,38.0,69,0.00,,,0.00,,2013-03-07 02:11:00,
2013-03-06 21:21:00,39.0,30.0,29.90,NE,34,17.0,30.0,69,0.00,,,0.00,,2013-03-07 02:21:00,
2013-03-06 21:32:00,39.0,29.0,29.90,NE,40,20.0,35.0,68,0.00,,,0.00,,2013-03-07 02:32:00,
2013-03-06 21:42:00,39.0,29.0,29.90,NE,40,20.0,35.0,68,0.00,,,0.00,,2013-03-07 02:42:00,
2013-03-06 21:52:00,39.0,29.0,29.90,NE,40,20.0,35.0,68,0.00,,,0.00,,2013-03-07 02:52:00,
2013-03-06 22:02:00,39.0,29.0,29.90,NE,48,20.0,35.0,67,0.00,,,0.00,,2013-03-07 03:02:00,
2013-03-06 22:11:00,39.0,29.0,29.90,NE,48,20.0,35.0,67,0.00,,,0.00,,2013-03-07 03:11:00,
2013-03-06 22:22:00,38.0,29.0,29.91,NE,43,21.0,38.0,69,0.00,,,0.00,,2013-03-07 03:22:00,
2013-03-06 22:32:00,38.0,29.0,29.91,NE,41,14.0,26.0,71,0.00,,,0.00,,2013-03-07 03:32:00,
2013-03-06 22:42:00,38.0,29.0,29.91,NE,41,14.0,26.0,71,0.00,,,0.00,,2013-03-07 03:42:00,
2013-03-06 22:52:00,37.0,29.0,29.91,NE,38,16.0,37.0,74,0.00,,,0.00,,2013-03-07 03:52:00,
2013-03-06 23:02:00,37.0,30.0,29.91,NE,44,16.0,35.0,75,0.00,,,0.00,,2013-03-07 04:02:00,
2013-03-06 23:12:00,37.0,30.0,29.91,NE,44,16.0,35.0,75,0.00,,,0.00,,2013-03-07 04:12:00,
2013-03-06 23:22:00,37.0,30.0,29.91,NE,48,17.0,39.0,75,0.00,,,0.00,,2013-03-07 04:22:00,
2013-03-06 23:32:00,37.0,30.0,29.91,NE,42,14.0,26.0,75,0.00,,,0.00,,2013-03-07 04:32:00,
2013-03-06 23:42:00,37.0,30.0,29.91,NE,42,14.0,26.0,75,0.00,,,0.00,,2013-03-07 04:42:00,
2013-03-06 23:52:00,37.0,30.0,29.91,NE,53,17.0,32.0,75,0.00,,,0.00,,2013-03-07 04:52:00,